When you browse on this site, cookies collect data to enhance your experience and personalize the content and advertising you see.
Visit our Privacy Policy to learn more. By continuing to use the site, you agree to this use of cookies and data.
  • In Hungary
  • List of Countries
  • For 7 days
  • Water Temperature
  • Satellite Maps
  • Weather Map
  • News
  • Weather Widgets
  • user-avatar
    Login

    Hourly Weather Dubai

    Today, 12 December, Wednesday

    Time Temperature Precipitation Wind Pressure Humidity
    00:00 +25°C° 0 mm 4 mps 761 mmHg 62%
    01:00 +25°C° 0 mm 4 mps 761 mmHg 63%
    02:00 +25°C° 0 mm 4 mps 761 mmHg 64%
    03:00 +25°C° 0 mm 4 mps 761 mmHg 64%
    04:00 +24°C° 0 mm 3 mps 761 mmHg 66%
    05:00 +24°C° 0 mm 3 mps 762 mmHg 67%
    06:00 +24°C° 0 mm 3 mps 762 mmHg 68%
    07:00 +24°C° 0 mm 3 mps 762 mmHg 69%
    08:00 +24°C° 0 mm 3 mps 762 mmHg 64%
    09:00 +25°C° 0 mm 2 mps 763 mmHg 60%
    10:00 +26°C° 0 mm 2 mps 763 mmHg 57%
    11:00 +27°C° 0 mm 2 mps 763 mmHg 52%
    12:00 +27°C° 0 mm 2 mps 763 mmHg 47%
    13:00 +28°C° 0 mm 1 mps 762 mmHg 42%
    14:00 +28°C° 0 mm 2 mps 762 mmHg 41%
    15:00 +28°C° 0 mm 2 mps 762 mmHg 41%
    16:00 +29°C° 0 mm 2 mps 762 mmHg 40%
    17:00 +28°C° 0 mm 2 mps 762 mmHg 43%
    18:00 +27°C° 0 mm 2 mps 762 mmHg 47%
    19:00 +26°C° 0 mm 2 mps 762 mmHg 50%
    20:00 +26°C° 0 mm 2 mps 763 mmHg 51%
    21:00 +26°C° 0 mm 1 mps 763 mmHg 53%
    22:00 +25°C° 0 mm 1 mps 763 mmHg 54%
    23:00 +25°C° 0 mm 1 mps 763 mmHg 55%

    Tomorrow, 13 December, Thursday

    Time Temperature Precipitation Wind Pressure Humidity
    00:00 +25°C° 0 mm 1 mps 763 mmHg 56%
    01:00 +22°C° 0 mm 0 mps 763 mmHg 57%
    02:00 +22°C° 0 mm 0 mps 763 mmHg 58%
    03:00 +22°C° 0 mm 0 mps 763 mmHg 59%
    04:00 +21°C° 0 mm 0 mps 762 mmHg 60%
    05:00 +21°C° 0 mm 0 mps 763 mmHg 60%
    06:00 +23°C° 0 mm 1 mps 763 mmHg 61%
    07:00 +23°C° 0 mm 1 mps 763 mmHg 62%
    08:00 +24°C° 0 mm 1 mps 764 mmHg 57%
    09:00 +25°C° 0 mm 1 mps 764 mmHg 52%
    10:00 +26°C° 0 mm 1 mps 765 mmHg 47%
    11:00 +26°C° 0 mm 1 mps 764 mmHg 42%
    12:00 +27°C° 0 mm 1 mps 764 mmHg 38%
    13:00 +28°C° 0 mm 1 mps 763 mmHg 33%
    14:00 +28°C° 0 mm 2 mps 763 mmHg 34%
    15:00 +28°C° 0 mm 2 mps 763 mmHg 34%
    16:00 +28°C° 0 mm 3 mps 763 mmHg 35%
    17:00 +27°C° 0 mm 3 mps 763 mmHg 38%
    18:00 +27°C° 0 mm 3 mps 763 mmHg 42%
    19:00 +26°C° 0 mm 3 mps 764 mmHg 45%
    20:00 +26°C° 0 mm 2 mps 764 mmHg 47%
    21:00 +25°C° 0 mm 2 mps 764 mmHg 48%
    22:00 +25°C° 0 mm 2 mps 764 mmHg 49%
    23:00 +24°C° 0 mm 2 mps 764 mmHg 50%

    Day after tomorrow, 14 December, Friday

    Time Temperature Precipitation Wind Pressure Humidity
    00:00 +24°C° 0 mm 2 mps 764 mmHg 52%
    01:00 +24°C° 0 mm 1 mps 764 mmHg 53%
    02:00 +24°C° 0 mm 1 mps 763 mmHg 54%
    03:00 +23°C° 0 mm 1 mps 763 mmHg 55%
    04:00 +23°C° 0 mm 1 mps 763 mmHg 56%
    05:00 +23°C° 0 mm 1 mps 763 mmHg 57%
    06:00 +23°C° 0 mm 1 mps 764 mmHg 58%
    07:00 +23°C° 0 mm 1 mps 764 mmHg 59%
    08:00 +24°C° 0 mm 2 mps 764 mmHg 57%
    09:00 +25°C° 0 mm 2 mps 765 mmHg 54%
    10:00 +26°C° 0 mm 2 mps 765 mmHg 51%
    11:00 +26°C° 0 mm 1 mps 765 mmHg 48%
    12:00 +27°C° 0 mm 1 mps 764 mmHg 44%
    13:00 +27°C° 0 mm 1 mps 764 mmHg 41%
    14:00 +28°C° 0 mm 2 mps 763 mmHg 42%
    15:00 +28°C° 0 mm 2 mps 763 mmHg 42%
    16:00 +28°C° 0 mm 3 mps 763 mmHg 42%
    17:00 +27°C° 0 mm 3 mps 763 mmHg 46%
    18:00 +27°C° 0 mm 4 mps 764 mmHg 49%
    19:00 +26°C° 0 mm 4 mps 764 mmHg 52%
    20:00 +26°C° 0 mm 4 mps 764 mmHg 54%
    21:00 +26°C° 0 mm 4 mps 764 mmHg 57%
    22:00 +25°C° 0 mm 4 mps 764 mmHg 59%
    23:00 +25°C° 0 mm 4 mps 764 mmHg 60%

    15 December, Saturday

    Time Temperature Precipitation Wind Pressure Humidity
    00:00 +25°C° 0 mm 3 mps 764 mmHg 61%
    01:00 +24°C° 0 mm 3 mps 763 mmHg 62%
    02:00 +24°C° 0 mm 3 mps 763 mmHg 63%
    03:00 +24°C° 0 mm 3 mps 763 mmHg 64%
    04:00 +24°C° 0 mm 3 mps 763 mmHg 65%
    05:00 +22°C° 0 mm 3 mps 763 mmHg 66%
    06:00 +22°C° 0 mm 3 mps 763 mmHg 67%
    07:00 +22°C° 0 mm 3 mps 764 mmHg 68%
    08:00 +24°C° 0 mm 3 mps 764 mmHg 64%
    09:00 +25°C° 0 mm 3 mps 764 mmHg 60%
    10:00 +26°C° 0 mm 3 mps 765 mmHg 56%
    11:00 +26°C° 0 mm 2 mps 764 mmHg 51%
    12:00 +27°C° 0 mm 2 mps 764 mmHg 47%
    13:00 +27°C° 0 mm 2 mps 763 mmHg 42%
    14:00 +27°C° 0 mm 2 mps 763 mmHg 43%
    15:00 +28°C° 0 mm 3 mps 763 mmHg 44%
    16:00 +28°C° 0 mm 4 mps 762 mmHg 45%
    17:00 +27°C° 0 mm 4 mps 763 mmHg 47%
    18:00 +27°C° 0 mm 4 mps 763 mmHg 50%
    19:00 +26°C° 0 mm 4 mps 763 mmHg 53%
    20:00 +26°C° 0 mm 4 mps 764 mmHg 54%
    21:00 +25°C° 0 mm 3 mps 764 mmHg 56%
    22:00 +25°C° 0 mm 3 mps 764 mmHg 58%
    23:00 +25°C° 0 mm 3 mps 764 mmHg 59%

    16 December, Sunday

    Time Temperature Precipitation Wind Pressure Humidity
    00:00 +24°C° 0 mm 3 mps 764 mmHg 61%
    01:00 +24°C° 0 mm 3 mps 763 mmHg 63%
    02:00 +24°C° 0 mm 3 mps 763 mmHg 64%
    03:00 +24°C° 0 mm 3 mps 763 mmHg 65%
    04:00 +22°C° 0 mm 3 mps 763 mmHg 66%
    05:00 +22°C° 0 mm 3 mps 764 mmHg 66%
    06:00 +22°C° 0 mm 3 mps 764 mmHg 66%
    07:00 +22°C° 0 mm 3 mps 764 mmHg 66%
    08:00 +24°C° 0 mm 3 mps 765 mmHg 62%
    09:00 +25°C° 0 mm 4 mps 765 mmHg 58%
    10:00 +26°C° 0 mm 4 mps 765 mmHg 54%
    11:00 +27°C° 0 mm 4 mps 765 mmHg 50%
    12:00 +27°C° 0 mm 3 mps 764 mmHg 46%
    13:00 +28°C° 0 mm 3 mps 764 mmHg 43%
    14:00 +28°C° 0 mm 4 mps 764 mmHg 43%
    15:00 +28°C° 0 mm 4 mps 763 mmHg 44%
    16:00 +28°C° 0 mm 5 mps 763 mmHg 45%
    17:00 +27°C° 0 mm 5 mps 763 mmHg 48%
    18:00 +27°C° 0 mm 5 mps 764 mmHg 50%
    19:00 +26°C° 0 mm 6 mps 764 mmHg 53%
    20:00 +26°C° 0 mm 6 mps 764 mmHg 54%
    21:00 +25°C° 0 mm 5 mps 764 mmHg 56%
    22:00 +25°C° 0 mm 5 mps 764 mmHg 57%
    23:00 +25°C° 0 mm 5 mps 764 mmHg 57%

    17 December, Monday

    Time Temperature Precipitation Wind Pressure Humidity
    00:00 +23°C° 0 mm 5 mps 764 mmHg 58%
    01:00 +23°C° 0 mm 4 mps 764 mmHg 59%
    02:00 +23°C° 0 mm 4 mps 763 mmHg 58%
    03:00 +23°C° 0 mm 4 mps 763 mmHg 58%
    04:00 +22°C° 0 mm 4 mps 763 mmHg 57%
    05:00 +22°C° 0 mm 4 mps 763 mmHg 57%
    06:00 +22°C° 0 mm 4 mps 764 mmHg 58%
    07:00 +22°C° 0 mm 4 mps 764 mmHg 58%
    08:00 +23°C° 0 mm 4 mps 764 mmHg 53%
    09:00 +25°C° 0 mm 5 mps 765 mmHg 49%
    10:00 +26°C° 0 mm 5 mps 765 mmHg 44%
    11:00 +27°C° 0 mm 4 mps 765 mmHg 40%
    12:00 +28°C° 0 mm 3 mps 764 mmHg 36%
    13:00 +29°C° 0 mm 3 mps 763 mmHg 33%
    14:00 +29°C° 0 mm 3 mps 763 mmHg 33%
    15:00 +29°C° 0 mm 3 mps 763 mmHg 33%
    16:00 +29°C° 0 mm 3 mps 762 mmHg 33%
    17:00 +28°C° 0 mm 4 mps 763 mmHg 36%
    18:00 +27°C° 0 mm 4 mps 763 mmHg 39%
    19:00 +27°C° 0 mm 5 mps 763 mmHg 42%
    20:00 +26°C° 0 mm 5 mps 763 mmHg 44%
    21:00 +25°C° 0 mm 5 mps 763 mmHg 46%
    22:00 +25°C° 0 mm 4 mps 763 mmHg 47%
    23:00 +23°C° 0 mm 4 mps 763 mmHg 48%
    Show more